[[{"header":{"parameterUnit":"m.s-1","parameterCategory":2,"la1":30.2991,"la2":30.254,"lo1":-89.0895,"lo2":-89.0444,"dy":0.0017,"dx":0.0017,"nx":28,"ny":28,"refTime":"2023-08-20T09:00:00:Z","depth":"0","parameterNumber":2,"parameterNumberName":"U-component_of_CURRENTS"},"data":[0,0,0,0,0,0,0,0,0,0,0,0,0,0,0,0,0,0,0,0,0,0,0,0,0,0,0,0,0,0,0,0,0,0,0,0,0,0,0,0,0,0,0,0,0,0,0,0,0,0,0,0,0,0,0,0,0,0,-0.2183,-0.2183,0,-0.2207,-0.2208,-0.2208,-0.2206,-0.2206,-0.2205,-0.2205,-0.2139,-0.2137,-0.2136,0,0,0,0,0,0,0,0,0,0,0,0,0,-0.2111,-0.2112,-0.2183,-0.2183,-0.2184,-0.2207,-0.2208,-0.2208,-0.2206,-0.2206,-0.2205,-0.2205,-0.2139,-0.2138,-0.2136,0,0,0,0,0,0,0,0,0,0,0,0,0,-0.2139,-0.2113,-0.2183,-0.2186,-0.2186,-0.2207,-0.2208,-0.2208,-0.2206,-0.2206,-0.2205,-0.2205,-0.214,-0.2138,-0.2136,-0.2132,0,0,-0.2129,-0.2128,0,0,0,0,0,0,0,0,-0.2138,-0.2142,-0.2185,-0.2186,-0.2186,-0.2204,-0.2158,-0.2178,-0.2206,-0.2198,-0.2205,-0.2204,-0.2153,-0.2149,-0.2156,-0.2129,-0.2126,-0.2129,-0.2127,-0.2126,-0.2126,0,0,0,0,0,0,0,-0.2136,-0.214,-0.2192,-0.2186,-0.2186,-0.2178,-0.2182,-0.2162,-0.2176,-0.2199,-0.2199,-0.2203,-0.2152,-0.2158,-0.2154,-0.2125,-0.2129,-0.2127,-0.2125,-0.2125,-0.211,-0.2111,0,0,0,0,0,0,-0.2136,-0.2139,-0.2191,-0.2193,-0.2161,-0.218,-0.2184,-0.2198,-0.2178,-0.2175,-0.2203,-0.2202,-0.2162,-0.2157,-0.2151,-0.2157,-0.2126,-0.2124,-0.2123,-0.2109,-0.2111,-0.2112,0,0,0,0,0,0,-0.2134,-0.2141,-0.219,-0.2166,-0.2172,-0.2182,-0.2198,-0.2199,-0.2209,-0.2182,-0.2178,-0.2212,-0.2161,-0.2155,-0.2144,-0.2153,-0.2123,-0.2121,-0.2108,-0.211,-0.2111,-0.216,0,0,0,0,0,0,-0.2132,-0.214,-0.2151,-0.2167,-0.2173,-0.2214,-0.2198,-0.22,-0.2212,-0.2212,-0.2189,-0.2182,-0.216,-0.2147,-0.2142,-0.215,-0.212,-0.2107,-0.2109,-0.2111,-0.2157,-0.2162,-0.2167,0,0,0,0,0,-0.213,-0.2153,-0.2152,-0.2158,-0.2188,-0.2215,-0.2218,-0.2222,-0.2213,-0.2227,-0.2208,-0.2183,-0.2154,-0.2146,-0.2139,-0.2147,-0.2106,-0.2109,-0.2111,-0.2154,-0.2161,-0.2167,0,0,0,0,0,0,-0.2129,-0.2155,-0.2154,-0.2184,-0.22,-0.2215,-0.2225,-0.2228,-0.2227,-0.222,-0.2191,-0.2184,-0.2177,-0.216,-0.2152,-0.215,-0.2127,-0.2128,-0.2163,-0.2169,-0.2175,-0.2179,-0.2118,0,0,0,0,0,-0.2133,-0.2159,-0.2176,-0.2201,-0.2206,-0.2215,-0.2225,-0.2231,-0.2232,-0.2232,-0.2219,-0.22,-0.2181,-0.2174,-0.2156,-0.2155,-0.2132,-0.2158,-0.2164,-0.2168,-0.2168,-0.2146,-0.2149,-0.2119,-0.2119,-0.2118,0,0,-0.2142,-0.2158,-0.2174,-0.2203,-0.221,-0.2234,-0.222,-0.2242,-0.2264,-0.2222,-0.2242,-0.2214,-0.2184,-0.2183,-0.2179,-0.217,-0.2167,-0.2171,-0.2175,-0.2172,-0.2148,-0.2151,-0.2153,-0.212,-0.212,-0.2119,0,0,-0.2177,-0.2183,-0.2215,-0.2229,-0.2248,-0.2252,-0.226,-0.2278,-0.2285,-0.2302,-0.227,-0.2249,-0.2241,-0.2216,-0.2202,-0.2226,-0.2191,-0.2226,-0.2258,-0.2236,-0.2238,-0.224,-0.222,-0.2219,-0.2233,-0.2233,-0.2233,0,-0.2187,-0.2231,-0.2228,-0.2258,-0.2273,-0.2262,-0.2296,-0.2304,-0.232,-0.2328,-0.2316,-0.2285,-0.2255,-0.2237,-0.2247,-0.2235,-0.2222,-0.2234,-0.2242,-0.2243,-0.2243,-0.2223,-0.2221,-0.2236,-0.2235,-0.2235,-0.2235,0,-0.2241,-0.2277,-0.2295,-0.2328,-0.2338,-0.2369,-0.2371,-0.2386,-0.2387,-0.2393,-0.2385,-0.234,-0.2326,-0.2309,-0.2285,-0.2274,-0.2263,-0.2247,-0.2224,-0.2249,-0.2226,-0.2224,-0.2239,-0.2239,-0.2238,-0.2237,0,0,-0.2258,-0.2327,-0.2331,-0.2363,-0.238,-0.2398,-0.2422,-0.2448,-0.2464,-0.2459,-0.2474,-0.2429,-0.2403,-0.2384,-0.234,-0.2311,-0.2299,-0.2288,-0.2286,-0.2265,-0.2258,-0.2256,-0.2253,-0.2288,-0.2287,-0.2287,-0.2242,0,-0.2304,-0.2393,-0.2399,-0.2462,-0.2503,-0.2492,-0.2516,-0.2527,-0.2527,-0.2537,-0.2486,-0.2478,-0.2433,-0.2418,-0.2385,-0.2314,-0.2294,-0.2313,-0.2239,-0.2237,-0.2229,-0.2251,-0.2238,-0.2198,-0.2239,-0.2239,-0.2238,0,-0.2338,-0.2402,-0.2488,-0.2546,-0.2557,-0.2581,-0.2602,-0.2625,-0.2621,-0.2621,-0.2597,-0.2559,-0.2511,-0.247,-0.2375,-0.2393,-0.234,-0.228,-0.2277,-0.2256,-0.2231,-0.2178,-0.2191,-0.2098,-0.2234,-0.2234,-0.2235,0,-0.235,-0.2446,-0.2524,-0.2546,-0.261,-0.2632,-0.2651,-0.2654,-0.267,-0.267,-0.2678,-0.2616,-0.2591,-0.2507,-0.2397,-0.2394,-0.2287,-0.227,-0.2217,-0.2216,-0.218,-0.2177,-0.2089,-0.2217,-0.2217,-0.2217,-0.2217,0,-0.2386,-0.243,-0.2545,-0.2582,-0.2653,-0.2671,-0.2709,-0.2724,-0.2732,-0.2742,-0.2723,-0.271,-0.2602,-0.2528,-0.2423,-0.2313,-0.2315,-0.2225,-0.2206,-0.2199,-0.2198,-0.2093,-0.2069,-0.2215,-0.2216,-0.2216,-0.2216,0,-0.2348,-0.2438,-0.2524,-0.263,-0.2661,-0.27,-0.2747,-0.2764,-0.2789,-0.2799,-0.2804,-0.2784,-0.2699,-0.2576,-0.2434,-0.2359,-0.2189,-0.2201,-0.2201,-0.2184,-0.2063,-0.2044,-0.1941,-0.1907,-0.2147,-0.2147,-0.2147,0,-0.2329,-0.2384,-0.254,-0.26,-0.2644,-0.271,-0.274,-0.2782,-0.2788,-0.283,-0.2825,-0.2792,-0.2755,-0.2573,-0.2417,-0.2254,-0.2166,-0.2153,-0.2145,-0.2058,-0.2022,-0.1986,-0.1962,-0.2113,-0.2113,-0.2112,-0.2112,0,-0.2277,-0.2343,-0.2422,-0.2535,-0.2606,-0.2677,-0.2722,-0.2733,-0.2767,-0.2765,-0.2756,-0.2753,-0.2698,-0.2533,-0.2372,-0.2271,-0.2099,-0.2142,-0.2045,-0.1988,-0.1949,-0.1907,-0.2141,-0.2108,-0.2109,-0.2109,-0.2109,-0.2109,-0.221,-0.2236,-0.2334,-0.2405,-0.2502,-0.2542,-0.2491,-0.254,-0.2499,-0.2416,-0.2589,-0.2516,-0.2518,-0.2311,-0.2265,-0.2084,-0.2076,-0.1969,-0.1952,-0.1921,-0.189,-0.2127,-0.208,-0.208,-0.2081,-0.2081,-0.2081,0,-0.2053,-0.2085,-0.2178,-0.222,-0.2224,-0.2348,-0.237,-0.2256,-0.2102,-0.219,-0.2152,-0.2148,-0.2073,-0.2067,-0.1933,-0.1869,-0.1857,-0.1785,-0.1716,-0.1701,-0.1894,-0.1894,-0.1816,-0.1816,-0.1816,-0.1816,-0.1816,-0.1816,-0.1976,-0.195,-0.1969,-0.1885,-0.1923,-0.1799,-0.1765,-0.1685,-0.1667,-0.1571,-0.1572,-0.1695,-0.1704,-0.1699,-0.1623,-0.1622,-0.1552,-0.1534,-0.1489,-0.1603,-0.1618,-0.1632,-0.1624,-0.149,-0.1489,-0.1281,-0.1279,-0.1278]},{"header":{"parameterUnit":"m.s-1","parameterCategory":2,"la1":30.2991,"la2":30.254,"lo1":-89.0895,"lo2":-89.0444,"dy":0.0017,"dx":0.0017,"nx":28,"ny":28,"refTime":"2023-08-20T09:00:00:Z","depth":"0","parameterNumber":3,"parameterNumberName":"V-component_of_CURRENTS"},"data":[0,0,0,0,0,0,0,0,0,0,0,0,0,0,0,0,0,0,0,0,0,0,0,0,0,0,0,0,0,0,0,0,0,0,0,0,0,0,0,0,0,0,0,0,0,0,0,0,0,0,0,0,0,0,0,0,0,0,0.1269,0.127,0,0.1373,0.1375,0.1376,0.1441,0.1441,0.1441,0.1441,0.1486,0.1487,0.1489,0,0,0,0,0,0,0,0,0,0,0,0,0,0.1165,0.1167,0.1269,0.127,0.1271,0.1373,0.1375,0.1377,0.1441,0.1441,0.1441,0.1441,0.1486,0.1487,0.1489,0,0,0,0,0,0,0,0,0,0,0,0,0,0.1238,0.1167,0.1269,0.1312,0.1317,0.1373,0.1375,0.1377,0.1441,0.1441,0.1441,0.1441,0.1485,0.1487,0.1489,0.1503,0,0,0.1495,0.1496,0,0,0,0,0,0,0,0,0.1234,0.1242,0.1305,0.1309,0.1314,0.139,0.1355,0.1415,0.1441,0.1399,0.1441,0.1441,0.1446,0.1451,0.1478,0.1505,0.1507,0.1495,0.1496,0.1497,0.1497,0,0,0,0,0,0,0,0.1229,0.1238,0.1315,0.1306,0.1311,0.1339,0.1349,0.1367,0.1424,0.1402,0.1406,0.141,0.1448,0.1476,0.1479,0.1508,0.1495,0.1497,0.1498,0.1499,0.1531,0.153,0,0,0,0,0,0,0.1205,0.1234,0.1312,0.1318,0.1268,0.134,0.1352,0.137,0.1425,0.1433,0.141,0.1413,0.1473,0.1477,0.1481,0.1487,0.1497,0.1499,0.15,0.1531,0.1531,0.153,0,0,0,0,0,0,0.1203,0.1212,0.1307,0.1273,0.1287,0.1341,0.1361,0.1372,0.1394,0.1431,0.1438,0.142,0.1473,0.1478,0.149,0.1489,0.15,0.1501,0.1531,0.1531,0.153,0.1506,0,0,0,0,0,0,0.1199,0.121,0.121,0.1272,0.1288,0.1324,0.1361,0.1374,0.1394,0.1399,0.1441,0.1446,0.1473,0.1487,0.1492,0.1492,0.1503,0.1532,0.1531,0.1531,0.1507,0.1505,0.1503,0,0,0,0,0,0.1196,0.1189,0.121,0.1219,0.1288,0.1323,0.1333,0.1375,0.1395,0.1397,0.143,0.1445,0.1487,0.1489,0.1495,0.1495,0.1532,0.1531,0.1531,0.1508,0.1505,0.1503,0,0,0,0,0,0,0.1136,0.1197,0.1221,0.1232,0.1267,0.1331,0.1328,0.1368,0.14,0.1399,0.1443,0.145,0.146,0.1477,0.1478,0.1501,0.1511,0.1512,0.1492,0.149,0.1487,0.1467,0.1504,0,0,0,0,0,0.1124,0.114,0.1197,0.1202,0.1212,0.1272,0.1289,0.1323,0.136,0.1376,0.1414,0.1443,0.1465,0.1475,0.1495,0.1508,0.1514,0.151,0.1508,0.1506,0.1493,0.1506,0.1504,0.1528,0.1528,0.1528,0,0,0.1099,0.1134,0.1142,0.1191,0.1218,0.1238,0.1282,0.13,0.1331,0.1372,0.1411,0.1433,0.1464,0.1482,0.1488,0.1495,0.1502,0.1505,0.1503,0.1491,0.1505,0.1503,0.1501,0.1528,0.1528,0.1528,0,0,0.105,0.1088,0.1081,0.1116,0.1153,0.1197,0.1198,0.1262,0.1298,0.1338,0.1373,0.1387,0.1437,0.1457,0.1473,0.1466,0.1488,0.1477,0.1455,0.1468,0.1466,0.1464,0.1468,0.1467,0.148,0.148,0.148,0,0.1016,0.1031,0.108,0.1088,0.1112,0.1175,0.1179,0.1229,0.1296,0.1325,0.1339,0.1404,0.1424,0.1446,0.1445,0.146,0.1471,0.1465,0.1465,0.1463,0.1462,0.1467,0.1466,0.1478,0.1478,0.1479,0.1479,0,0.0965,0.0989,0.0982,0.1026,0.1056,0.1068,0.1142,0.1183,0.1235,0.129,0.1327,0.1359,0.14,0.1406,0.1425,0.1429,0.144,0.1459,0.1471,0.1458,0.1464,0.1463,0.1477,0.1477,0.1477,0.1478,0,0,0.0858,0.0934,0.0931,0.0957,0.1031,0.105,0.1103,0.1168,0.1209,0.1265,0.131,0.1335,0.1361,0.1378,0.1401,0.1403,0.1401,0.1424,0.1426,0.1426,0.1428,0.1401,0.1399,0.1428,0.1428,0.1427,0.1435,0,0.0801,0.0805,0.0869,0.0891,0.0902,0.1001,0.1054,0.1127,0.1197,0.1261,0.1299,0.1341,0.1352,0.1368,0.1373,0.1403,0.1399,0.1397,0.1441,0.1442,0.1419,0.1396,0.1454,0.1463,0.1434,0.1434,0.1434,0,0.072,0.0747,0.0746,0.085,0.0863,0.0891,0.0988,0.1052,0.1163,0.1218,0.1266,0.1321,0.1343,0.1351,0.1378,0.1382,0.1393,0.1403,0.1405,0.1384,0.1414,0.1472,0.1463,0.1459,0.1434,0.1434,0.1434,0,0.06,0.0665,0.0664,0.0694,0.0809,0.0836,0.0903,0.1019,0.1087,0.1184,0.1229,0.1285,0.1314,0.1337,0.1378,0.1384,0.1402,0.1421,0.1399,0.1398,0.1455,0.1458,0.1445,0.1416,0.1416,0.1416,0.1416,0,0.0514,0.0516,0.0606,0.0609,0.0634,0.0748,0.0799,0.0885,0.101,0.1072,0.1187,0.1226,0.1312,0.1356,0.1376,0.1386,0.1406,0.1379,0.1393,0.1447,0.145,0.1455,0.1442,0.1417,0.1416,0.1416,0.1416,0,0.0364,0.0432,0.0437,0.0537,0.0573,0.058,0.073,0.0789,0.0912,0.0993,0.1025,0.1181,0.1239,0.1317,0.1362,0.1377,0.1402,0.1386,0.1436,0.1454,0.1413,0.1397,0.1384,0.1416,0.136,0.136,0.1359,0,0.0286,0.0267,0.0341,0.0363,0.0401,0.046,0.053,0.0697,0.0772,0.095,0.098,0.1092,0.1175,0.1257,0.1318,0.1364,0.1372,0.1412,0.1415,0.1398,0.1392,0.1391,0.142,0.1491,0.1491,0.1492,0.1492,0,0.0125,0.014,0.0149,0.0198,0.0252,0.0349,0.0455,0.0513,0.0715,0.0799,0.092,0.1008,0.1132,0.1245,0.1327,0.1356,0.1429,0.1417,0.1408,0.148,0.1474,0.1517,0.1488,0.1496,0.1496,0.1495,0.1495,0.1495,-0.0007,-0.0042,-0.0011,0.0034,0.0121,0.0257,0.0359,0.0495,0.0629,0.0836,0.085,0.0978,0.1158,0.1302,0.136,0.1445,0.1412,0.1463,0.1442,0.144,0.1468,0.1419,0.1433,0.1432,0.1431,0.1431,0.143,0,-0.014,-0.015,-0.0143,-0.0051,0.0046,0.014,0.0346,0.0503,0.068,0.0765,0.0892,0.0984,0.1169,0.1304,0.1431,0.1473,0.1542,0.1485,0.1525,0.1553,0.1531,0.1534,0.1561,0.1561,0.1561,0.1561,0.1561,0.1561,-0.0204,-0.0254,-0.0238,-0.0127,-0.0026,0.0196,0.0349,0.0589,0.0727,0.0879,0.0904,0.093,0.1002,0.1278,0.1414,0.1466,0.1512,0.1523,0.1501,0.1505,0.1503,0.15,0.1501,0.152,0.152,0.1592,0.1592,0.1593]}],[{"header":{"parameterUnit":"m.s-1","parameterCategory":2,"la1":30.2991,"la2":30.254,"lo1":-89.0895,"lo2":-89.0444,"dy":0.0017,"dx":0.0017,"nx":28,"ny":28,"refTime":"2023-08-20T09:00:00:Z","depth":"2","parameterNumber":2,"parameterNumberName":"U-component_of_CURRENTS"},"data":[0,0,0,0,0,0,0,0,0,0,0,0,0,0,0,0,0,0,0,0,0,0,0,0,0,0,0,0,0,0,0,0,0,0,0,0,0,0,0,0,0,0,0,0,0,0,0,0,0,0,0,0,0,0,0,0,0,0,-0.1267,-0.1267,0,-0.1274,-0.1274,-0.1274,-0.1252,-0.1251,-0.125,-0.125,-0.1214,-0.1214,-0.1213,0,0,0,0,0,0,0,0,0,0,0,0,0,-0.1227,-0.1228,-0.1267,-0.1267,-0.1267,-0.1274,-0.1274,-0.1274,-0.1252,-0.1251,-0.125,-0.1249,-0.1214,-0.1214,-0.1213,0,0,0,0,0,0,0,0,0,0,0,0,0,-0.124,-0.1229,-0.1267,-0.1257,-0.1256,-0.1274,-0.1274,-0.1274,-0.1252,-0.1251,-0.125,-0.1249,-0.1214,-0.1214,-0.1213,-0.123,0,0,-0.1212,-0.1212,0,0,0,0,0,0,0,0,-0.124,-0.1242,-0.1258,-0.1258,-0.1257,-0.1261,-0.1247,-0.1257,-0.1252,-0.1253,-0.125,-0.1248,-0.1227,-0.1225,-0.1229,-0.1229,-0.1227,-0.1212,-0.1211,-0.1211,-0.1211,0,0,0,0,0,0,0,-0.1239,-0.1241,-0.127,-0.1259,-0.1258,-0.125,-0.125,-0.1249,-0.1245,-0.1253,-0.1252,-0.1253,-0.1226,-0.123,-0.1228,-0.1227,-0.1212,-0.1211,-0.1211,-0.1211,-0.1188,-0.1188,0,0,0,0,0,0,-0.124,-0.1241,-0.127,-0.127,-0.1246,-0.1251,-0.1252,-0.1261,-0.1246,-0.1243,-0.1254,-0.1252,-0.1231,-0.1228,-0.1226,-0.121,-0.1211,-0.1211,-0.121,-0.1188,-0.1188,-0.1188,0,0,0,0,0,0,-0.1239,-0.1243,-0.1269,-0.1255,-0.1258,-0.1253,-0.1263,-0.1261,-0.1261,-0.1246,-0.1242,-0.1255,-0.123,-0.1227,-0.1216,-0.121,-0.1211,-0.121,-0.1189,-0.1188,-0.1188,-0.12,0,0,0,0,0,0,-0.1238,-0.1243,-0.125,-0.1255,-0.1259,-0.1281,-0.1264,-0.1262,-0.1264,-0.1261,-0.1246,-0.1242,-0.1229,-0.1217,-0.1216,-0.1209,-0.121,-0.1189,-0.1189,-0.1188,-0.12,-0.1201,-0.1201,0,0,0,0,0,-0.1237,-0.125,-0.125,-0.1254,-0.1269,-0.1281,-0.1282,-0.1275,-0.1265,-0.127,-0.1252,-0.1242,-0.1212,-0.1217,-0.1215,-0.1208,-0.1189,-0.1189,-0.1188,-0.12,-0.1201,-0.1201,0,0,0,0,0,0,-0.1234,-0.125,-0.125,-0.1266,-0.1274,-0.1277,-0.1278,-0.1278,-0.1271,-0.1261,-0.1245,-0.124,-0.1228,-0.1218,-0.1224,-0.1199,-0.1197,-0.1196,-0.1206,-0.1206,-0.1207,-0.1203,-0.1209,0,0,0,0,0,-0.1239,-0.1253,-0.1264,-0.1276,-0.1278,-0.128,-0.1283,-0.1281,-0.1275,-0.1271,-0.1261,-0.1242,-0.1227,-0.1216,-0.1207,-0.1198,-0.1181,-0.119,-0.119,-0.119,-0.1185,-0.1161,-0.1158,-0.1185,-0.1185,-0.1185,0,0,-0.124,-0.1251,-0.1258,-0.1277,-0.1277,-0.1286,-0.1279,-0.1284,-0.1286,-0.1268,-0.1263,-0.1249,-0.1226,-0.1213,-0.1205,-0.1201,-0.1172,-0.1189,-0.1189,-0.1184,-0.116,-0.1157,-0.1155,-0.1185,-0.1185,-0.1185,0,0,-0.1248,-0.1258,-0.127,-0.128,-0.1287,-0.1289,-0.1292,-0.1297,-0.1291,-0.1291,-0.127,-0.125,-0.1239,-0.1215,-0.1201,-0.1197,-0.1178,-0.1193,-0.1186,-0.1162,-0.116,-0.1157,-0.1127,-0.1122,-0.1187,-0.1187,-0.1187,0,-0.1249,-0.1269,-0.1275,-0.1288,-0.1293,-0.129,-0.13,-0.1299,-0.13,-0.129,-0.1288,-0.1252,-0.1237,-0.1205,-0.1199,-0.1197,-0.1179,-0.1189,-0.1162,-0.116,-0.1157,-0.1127,-0.1121,-0.1188,-0.1188,-0.1188,-0.1187,0,-0.1262,-0.1281,-0.1286,-0.1302,-0.1307,-0.1316,-0.1315,-0.1315,-0.1308,-0.1301,-0.1277,-0.1255,-0.1229,-0.1221,-0.1208,-0.1177,-0.1169,-0.1171,-0.1164,-0.1155,-0.1124,-0.1118,-0.1188,-0.1188,-0.1188,-0.1188,0,0,-0.125,-0.1291,-0.1289,-0.1305,-0.1316,-0.1321,-0.132,-0.1315,-0.1306,-0.1297,-0.1278,-0.1247,-0.123,-0.1213,-0.1193,-0.1167,-0.1133,-0.1159,-0.1158,-0.1132,-0.1073,-0.1068,-0.106,-0.1132,-0.1132,-0.1131,-0.1058,0,-0.1257,-0.1293,-0.1302,-0.1323,-0.1342,-0.1338,-0.1335,-0.1327,-0.1315,-0.1298,-0.1261,-0.1242,-0.1229,-0.1214,-0.1185,-0.1151,-0.1117,-0.1152,-0.1083,-0.108,-0.1079,-0.1053,-0.0986,-0.0915,-0.1051,-0.105,-0.105,0,-0.1251,-0.1288,-0.1315,-0.1344,-0.1346,-0.1349,-0.1338,-0.1338,-0.1309,-0.1299,-0.1267,-0.1245,-0.1199,-0.1196,-0.1123,-0.1146,-0.1107,-0.1079,-0.1075,-0.1061,-0.1063,-0.0946,-0.0898,-0.1039,-0.104,-0.1041,-0.1041,0,-0.1235,-0.1281,-0.1306,-0.1318,-0.1352,-0.1348,-0.1351,-0.1332,-0.1331,-0.1297,-0.1293,-0.1235,-0.1212,-0.1158,-0.1104,-0.1111,-0.1025,-0.1029,-0.0981,-0.098,-0.0903,-0.0897,-0.097,-0.097,-0.097,-0.097,-0.097,0,-0.1237,-0.1251,-0.1304,-0.1321,-0.1342,-0.1349,-0.1348,-0.1344,-0.133,-0.1321,-0.1292,-0.1274,-0.1203,-0.1151,-0.1097,-0.1019,-0.1018,-0.0968,-0.0958,-0.0906,-0.0901,-0.0998,-0.1002,-0.0967,-0.0968,-0.0968,-0.0969,0,-0.1207,-0.1244,-0.1278,-0.1324,-0.1339,-0.1344,-0.1367,-0.1374,-0.1357,-0.1346,-0.1339,-0.1296,-0.1237,-0.1166,-0.1072,-0.1014,-0.0941,-0.0912,-0.0855,-0.0839,-0.0909,-0.0915,-0.0843,-0.0842,-0.0841,-0.0841,-0.084,0,-0.1195,-0.1212,-0.1274,-0.1309,-0.1332,-0.1356,-0.1382,-0.1384,-0.1393,-0.136,-0.1357,-0.1302,-0.1247,-0.1113,-0.0995,-0.0881,-0.0928,-0.0774,-0.0778,-0.0898,-0.0895,-0.0902,-0.0908,-0.0672,-0.067,-0.0668,-0.0667,0,-0.1175,-0.1187,-0.1228,-0.1301,-0.1343,-0.1389,-0.1418,-0.1425,-0.1417,-0.1384,-0.1341,-0.1288,-0.1169,-0.1004,-0.087,-0.0807,-0.0789,-0.0742,-0.0861,-0.0732,-0.0735,-0.0733,-0.0745,-0.0653,-0.0655,-0.0656,-0.0657,-0.0657,-0.1143,-0.1167,-0.1222,-0.1278,-0.1348,-0.1398,-0.1388,-0.1395,-0.1363,-0.1223,-0.125,-0.104,-0.0964,-0.0664,-0.0674,-0.0668,-0.0694,-0.0651,-0.0656,-0.0662,-0.0673,-0.0677,-0.0585,-0.0586,-0.0586,-0.0587,-0.0588,0,-0.111,-0.1141,-0.1203,-0.1273,-0.1329,-0.1372,-0.1397,-0.1336,-0.1242,-0.1047,-0.092,-0.0651,-0.0539,-0.0513,-0.0474,-0.0499,-0.0502,-0.0522,-0.0513,-0.0525,-0.0536,-0.0542,-0.0418,-0.0418,-0.0418,-0.0418,0,0,-0.1096,-0.1128,-0.1162,-0.1226,-0.1279,-0.1284,-0.1272,-0.1152,-0.0981,-0.0684,-0.0431,-0.0259,-0.0317,-0.0221,-0.0323,-0.0374,-0.0433,-0.0371,-0.0493,-0.0482,-0.0492,-0.059,-0.061,0,0,0,0,0]},{"header":{"parameterUnit":"m.s-1","parameterCategory":2,"la1":30.2991,"la2":30.254,"lo1":-89.0895,"lo2":-89.0444,"dy":0.0017,"dx":0.0017,"nx":28,"ny":28,"refTime":"2023-08-20T09:00:00:Z","depth":"2","parameterNumber":3,"parameterNumberName":"V-component_of_CURRENTS"},"data":[0,0,0,0,0,0,0,0,0,0,0,0,0,0,0,0,0,0,0,0,0,0,0,0,0,0,0,0,0,0,0,0,0,0,0,0,0,0,0,0,0,0,0,0,0,0,0,0,0,0,0,0,0,0,0,0,0,0,-0.0836,-0.0835,0,-0.076,-0.076,-0.0759,-0.0742,-0.0743,-0.0743,-0.0744,-0.0641,-0.0637,-0.0634,0,0,0,0,0,0,0,0,0,0,0,0,0,-0.0926,-0.0925,-0.0836,-0.0835,-0.0834,-0.0761,-0.0759,-0.0758,-0.0742,-0.0743,-0.0743,-0.0744,-0.0642,-0.0638,-0.0634,0,0,0,0,0,0,0,0,0,0,0,0,0,-0.0872,-0.0924,-0.0836,-0.0818,-0.0815,-0.0761,-0.0759,-0.0758,-0.0742,-0.0743,-0.0744,-0.0744,-0.0643,-0.0638,-0.0633,-0.0584,0,0,-0.0618,-0.0616,0,0,0,0,0,0,0,0,-0.0875,-0.0868,-0.0821,-0.0819,-0.0816,-0.0762,-0.0754,-0.0699,-0.0741,-0.0769,-0.0744,-0.0745,-0.0679,-0.0671,-0.0654,-0.0579,-0.0574,-0.0617,-0.0614,-0.0612,-0.0611,0,0,0,0,0,0,0,-0.0879,-0.0871,-0.0805,-0.082,-0.0817,-0.08,-0.0793,-0.0743,-0.0718,-0.0766,-0.0765,-0.0758,-0.0677,-0.0658,-0.0651,-0.0573,-0.0618,-0.0613,-0.061,-0.0608,-0.042,-0.0418,0,0,0,0,0,0,-0.0891,-0.0875,-0.0807,-0.0803,-0.0849,-0.0798,-0.079,-0.0778,-0.0719,-0.0712,-0.0757,-0.0757,-0.0667,-0.0657,-0.0647,-0.0568,-0.0612,-0.0608,-0.0605,-0.0422,-0.0419,-0.0417,0,0,0,0,0,0,-0.0893,-0.0885,-0.081,-0.0838,-0.0828,-0.0796,-0.0781,-0.0776,-0.0754,-0.0713,-0.0705,-0.0741,-0.0667,-0.0654,-0.059,-0.0565,-0.0605,-0.0601,-0.0424,-0.0421,-0.0418,-0.042,0,0,0,0,0,0,-0.0896,-0.0886,-0.0877,-0.0839,-0.0827,-0.077,-0.078,-0.0774,-0.0749,-0.0748,-0.0696,-0.0688,-0.0667,-0.0598,-0.0585,-0.0558,-0.0597,-0.0427,-0.0423,-0.0419,-0.0422,-0.0417,-0.0413,0,0,0,0,0,-0.0899,-0.0882,-0.0876,-0.0868,-0.0816,-0.0769,-0.076,-0.0741,-0.0747,-0.0727,-0.0692,-0.0689,-0.0565,-0.0592,-0.0578,-0.0549,-0.0429,-0.0424,-0.042,-0.0425,-0.0418,-0.0413,0,0,0,0,0,0,-0.0912,-0.0878,-0.0871,-0.0843,-0.0807,-0.0767,-0.0748,-0.0735,-0.0691,-0.0693,-0.0661,-0.0648,-0.0583,-0.0558,-0.0589,-0.0481,-0.0497,-0.0489,-0.0505,-0.0499,-0.0494,-0.0505,-0.0593,0,0,0,0,0,-0.0911,-0.0891,-0.0853,-0.0828,-0.0814,-0.078,-0.0759,-0.0743,-0.0704,-0.0687,-0.0648,-0.0603,-0.0551,-0.0522,-0.0473,-0.0411,-0.0401,-0.0382,-0.0377,-0.0373,-0.0369,-0.0327,-0.032,-0.0402,-0.0402,-0.0403,0,0,-0.091,-0.0887,-0.0876,-0.083,-0.0804,-0.0766,-0.0769,-0.0734,-0.0696,-0.0679,-0.0615,-0.0582,-0.0529,-0.0464,-0.0432,-0.0442,-0.0345,-0.0368,-0.0365,-0.0363,-0.0322,-0.0314,-0.0307,-0.0399,-0.04,-0.04,0,0,-0.0899,-0.0877,-0.086,-0.0824,-0.0783,-0.0755,-0.0744,-0.0697,-0.0672,-0.0605,-0.0587,-0.0534,-0.0454,-0.0412,-0.0382,-0.0315,-0.0321,-0.0304,-0.0289,-0.0248,-0.0242,-0.0236,-0.0228,-0.0222,-0.0303,-0.0303,-0.0303,0,-0.0901,-0.0869,-0.0844,-0.0811,-0.078,-0.0749,-0.0715,-0.0674,-0.0609,-0.0585,-0.0583,-0.0466,-0.0424,-0.0348,-0.0329,-0.0304,-0.0302,-0.0322,-0.0245,-0.0239,-0.0233,-0.0227,-0.0219,-0.0303,-0.0303,-0.0303,-0.0303,0,-0.0874,-0.0843,-0.0826,-0.0775,-0.0735,-0.0698,-0.0644,-0.0605,-0.0576,-0.0539,-0.0462,-0.0402,-0.0341,-0.0315,-0.0301,-0.0235,-0.0255,-0.0248,-0.027,-0.0226,-0.0221,-0.0213,-0.0302,-0.0302,-0.0302,-0.0302,0,0,-0.0897,-0.0825,-0.082,-0.0793,-0.0714,-0.0683,-0.0616,-0.0554,-0.0522,-0.0454,-0.0406,-0.0312,-0.0303,-0.0266,-0.024,-0.0203,-0.0161,-0.0216,-0.0214,-0.0227,-0.0104,-0.0021,-0.0005,-0.0154,-0.0153,-0.0151,-0.0124,0,-0.0886,-0.0842,-0.0791,-0.0729,-0.0704,-0.064,-0.058,-0.0519,-0.0468,-0.0411,-0.0351,-0.0288,-0.0276,-0.0254,-0.0211,-0.017,-0.014,-0.0171,-0.0127,-0.0126,-0.0073,0.0008,-0.0141,-0.0119,-0.0117,-0.0115,-0.0115,0,-0.0879,-0.0853,-0.0808,-0.0726,-0.0706,-0.0656,-0.0578,-0.0516,-0.0431,-0.0393,-0.0331,-0.0286,-0.021,-0.021,-0.0122,-0.0151,-0.0127,-0.01,-0.0098,-0.0013,-0.0027,-0.0156,-0.0106,-0.0102,-0.0103,-0.0104,-0.0105,0,-0.0938,-0.0858,-0.083,-0.0799,-0.0703,-0.0668,-0.0613,-0.0526,-0.0475,-0.0389,-0.0347,-0.0264,-0.0207,-0.0162,-0.0087,-0.0116,0.0002,-0.0029,0.0067,0.007,-0.0039,-0.0046,0.0035,0.0035,0.0035,0.0035,0.0035,0,-0.0952,-0.0924,-0.0861,-0.0844,-0.0804,-0.0716,-0.066,-0.0597,-0.0502,-0.0431,-0.0351,-0.0276,-0.019,-0.0106,-0.0077,0.004,0.0016,0.0092,0.0104,-0.0042,-0.0048,-0.0018,-0.0025,0.0036,0.0035,0.0035,0.0035,0,-0.1015,-0.0968,-0.0939,-0.0862,-0.0833,-0.0813,-0.0699,-0.0656,-0.0555,-0.0462,-0.0429,-0.028,-0.014,-0.0049,0.005,0.0083,0.0161,0.0201,0.0022,0.0017,0.0179,0.0172,0.0292,0.0295,0.0298,0.0301,0.0303,0,-0.1036,-0.1037,-0.0985,-0.0974,-0.0937,-0.0884,-0.0838,-0.0715,-0.0649,-0.0455,-0.0406,-0.0229,-0.0106,0.0087,0.015,0.0236,0.0278,0.02,0.0154,0.0217,0.0216,0.0204,0.0193,-0.0026,-0.0027,-0.0027,-0.0028,0,-0.1095,-0.1088,-0.1076,-0.1066,-0.1028,-0.0961,-0.0874,-0.0821,-0.0649,-0.0561,-0.039,-0.0279,-0.0067,0.0002,0.0168,0.0201,0.0177,0.02,0.0309,-0.0028,-0.0068,-0.0074,-0.0077,-0.0033,-0.0033,-0.0032,-0.0032,-0.0032,-0.1145,-0.1165,-0.1165,-0.1153,-0.1105,-0.1018,-0.0947,-0.0837,-0.0725,-0.0541,-0.0447,-0.0306,-0.0226,-0.0042,0.0086,0.0213,0.0202,0.0179,0.0173,0.017,0.0169,0.0141,0.0211,0.0213,0.0214,0.0216,0.0217,0,-0.1209,-0.1228,-0.1237,-0.1201,-0.1155,-0.11,-0.0949,-0.0851,-0.0711,-0.0589,-0.0466,-0.0394,-0.0329,-0.0144,-0.002,0.0084,0.0024,0.017,0.0007,0.0008,0.0009,-0.0004,-0.0005,-0.0004,-0.0002,-0.0001,0,0,-0.1237,-0.1285,-0.1295,-0.1254,-0.1206,-0.1067,-0.0963,-0.081,-0.0677,-0.0536,-0.0477,-0.0517,-0.0366,-0.0314,-0.0202,-0.0078,-0.0026,-0.0042,0.0094,-0.0117,-0.0113,-0.0057,-0.0084,0,0,0,0,0]}],[{"header":{"parameterUnit":"m.s-1","parameterCategory":2,"la1":30.2991,"la2":30.254,"lo1":-89.0895,"lo2":-89.0444,"dy":0.0017,"dx":0.0017,"nx":28,"ny":28,"refTime":"2023-08-20T09:00:00:Z","depth":"4","parameterNumber":2,"parameterNumberName":"U-component_of_CURRENTS"},"data":[0,0,0,0,0,0,0,0,0,0,0,0,0,0,0,0,0,0,0,0,0,0,0,0,0,0,0,0,0,0,0,0,0,0,0,0,0,0,0,0,0,0,0,0,0,0,0,0,0,0,0,0,0,0,0,0,0,0,-0.019,-0.019,0,-0.0228,-0.0228,-0.0229,-0.0266,-0.0266,-0.0267,-0.0267,-0.0317,-0.0318,-0.0319,0,0,0,0,0,0,0,0,0,0,0,0,0,-0.0145,-0.0146,-0.019,-0.019,-0.019,-0.0228,-0.0228,-0.0229,-0.0266,-0.0266,-0.0267,-0.0267,-0.0317,-0.0318,-0.032,0,0,0,0,0,0,0,0,0,0,0,0,0,-0.0174,-0.0147,-0.019,-0.0212,-0.0215,-0.0227,-0.0228,-0.0229,-0.0266,-0.0266,-0.0267,-0.0267,-0.0317,-0.0318,-0.032,-0.0318,0,0,-0.0324,-0.0325,0,0,0,0,0,0,0,0,-0.0172,-0.0175,-0.0209,-0.0211,-0.0213,-0.0241,-0.0231,-0.0259,-0.0266,-0.0248,-0.0267,-0.0268,-0.0292,-0.0295,-0.0303,-0.0321,-0.0323,-0.0324,-0.0325,-0.0326,-0.0326,0,0,0,0,0,0,0,-0.017,-0.0174,-0.0206,-0.0209,-0.0212,-0.0219,-0.0224,-0.0237,-0.0268,-0.0249,-0.0252,-0.0254,-0.0293,-0.0302,-0.0305,-0.0324,-0.0324,-0.0326,-0.0327,-0.0327,-0.0474,-0.0477,0,0,0,0,0,0,-0.0162,-0.0172,-0.0205,-0.0207,-0.0192,-0.0219,-0.0225,-0.0233,-0.0267,-0.0273,-0.0253,-0.0255,-0.0299,-0.0303,-0.0307,-0.0407,-0.0326,-0.0327,-0.0328,-0.0471,-0.0475,-0.0478,0,0,0,0,0,0,-0.0161,-0.0165,-0.0203,-0.0189,-0.0194,-0.0219,-0.0228,-0.0233,-0.0249,-0.027,-0.0276,-0.0264,-0.0299,-0.0304,-0.0352,-0.0405,-0.0328,-0.0329,-0.0468,-0.0472,-0.0476,-0.0543,0,0,0,0,0,0,-0.016,-0.0164,-0.0167,-0.0189,-0.0195,-0.0209,-0.0228,-0.0234,-0.0248,-0.0251,-0.0281,-0.0286,-0.03,-0.035,-0.0353,-0.0406,-0.0331,-0.0464,-0.047,-0.0475,-0.0537,-0.0549,-0.056,0,0,0,0,0,-0.0158,-0.0156,-0.0167,-0.0171,-0.0198,-0.0209,-0.0213,-0.0233,-0.0248,-0.025,-0.0297,-0.0285,-0.0389,-0.0353,-0.0356,-0.0411,-0.0461,-0.0468,-0.0475,-0.0532,-0.0547,-0.0559,0,0,0,0,0,0,-0.0143,-0.016,-0.0173,-0.0178,-0.0192,-0.0215,-0.0219,-0.0234,-0.027,-0.0281,-0.0308,-0.0316,-0.0377,-0.0387,-0.0346,-0.0475,-0.0429,-0.0437,-0.0472,-0.0486,-0.0497,-0.0471,-0.0332,0,0,0,0,0,-0.0139,-0.0136,-0.0162,-0.0162,-0.0174,-0.0198,-0.0206,-0.0221,-0.0253,-0.0269,-0.0305,-0.0355,-0.0406,-0.0438,-0.0467,-0.0528,-0.0512,-0.0573,-0.0585,-0.0594,-0.058,-0.0617,-0.063,-0.05,-0.05,-0.05,0,0,-0.0131,-0.0139,-0.0139,-0.0157,-0.0174,-0.0194,-0.0205,-0.0217,-0.0245,-0.0269,-0.0331,-0.0377,-0.0426,-0.0504,-0.0535,-0.0522,-0.0625,-0.0603,-0.061,-0.059,-0.0626,-0.0638,-0.0648,-0.0505,-0.0504,-0.0503,0,0,-0.0115,-0.0127,-0.0127,-0.0142,-0.0163,-0.0183,-0.0188,-0.0228,-0.0258,-0.0317,-0.036,-0.0426,-0.0505,-0.0556,-0.0591,-0.0676,-0.067,-0.0721,-0.0772,-0.081,-0.082,-0.0828,-0.0822,-0.083,-0.0744,-0.0744,-0.0744,0,-0.0113,-0.0116,-0.0127,-0.014,-0.0157,-0.0181,-0.02,-0.0232,-0.0288,-0.0314,-0.0342,-0.0476,-0.0521,-0.0612,-0.0684,-0.0695,-0.0719,-0.0713,-0.0821,-0.0829,-0.0837,-0.0828,-0.0836,-0.0748,-0.0748,-0.0747,-0.0747,0,-0.0105,-0.0114,-0.0116,-0.0144,-0.0163,-0.0176,-0.0225,-0.0258,-0.0308,-0.0342,-0.0433,-0.0513,-0.0598,-0.065,-0.0711,-0.0814,-0.0813,-0.0814,-0.0776,-0.0853,-0.084,-0.0846,-0.0754,-0.0753,-0.0751,-0.075,0,0,-0.0095,-0.0109,-0.0112,-0.0128,-0.0168,-0.0184,-0.0233,-0.0278,-0.0314,-0.0389,-0.0446,-0.0584,-0.0637,-0.0684,-0.0768,-0.0836,-0.0933,-0.089,-0.089,-0.0863,-0.1017,-0.0835,-0.0824,-0.0985,-0.0986,-0.0988,-0.0984,0,-0.0094,-0.0103,-0.012,-0.0148,-0.0165,-0.0206,-0.0246,-0.029,-0.0351,-0.0412,-0.0487,-0.0578,-0.0649,-0.0737,-0.0812,-0.0899,-0.0956,-0.0932,-0.0963,-0.0961,-0.0774,-0.0827,-0.0993,-0.0989,-0.099,-0.0991,-0.0992,0,-0.0088,-0.0095,-0.0112,-0.015,-0.0166,-0.0191,-0.0259,-0.0309,-0.0379,-0.0427,-0.0513,-0.0586,-0.0709,-0.0761,-0.0898,-0.0901,-0.0978,-0.1023,-0.1024,-0.0827,-0.0791,-0.0899,-0.1002,-0.1001,-0.1,-0.1,-0.0999,0,-0.0067,-0.0095,-0.0103,-0.0118,-0.0165,-0.0192,-0.0238,-0.0307,-0.0356,-0.0456,-0.0495,-0.0612,-0.0692,-0.0797,-0.0909,-0.0948,-0.1012,-0.1051,-0.0931,-0.0918,-0.105,-0.1041,-0.1132,-0.1132,-0.1132,-0.1132,-0.1132,0,-0.0059,-0.0072,-0.0092,-0.0103,-0.0125,-0.0183,-0.0242,-0.0288,-0.037,-0.0402,-0.0523,-0.0554,-0.0726,-0.0785,-0.0887,-0.089,-0.0983,-0.0923,-0.0906,-0.108,-0.1075,-0.1054,-0.1045,-0.1132,-0.1132,-0.1132,-0.1132,0,-0.0041,-0.0047,-0.006,-0.01,-0.0111,-0.0141,-0.0231,-0.0281,-0.0355,-0.0404,-0.0444,-0.0537,-0.0583,-0.0681,-0.0812,-0.0826,-0.0865,-0.0847,-0.0978,-0.097,-0.0758,-0.0754,-0.0721,-0.0715,-0.0709,-0.0705,-0.0701,0,-0.003,-0.0029,-0.0047,-0.0056,-0.0078,-0.0134,-0.0171,-0.0258,-0.0308,-0.0361,-0.0368,-0.0425,-0.0475,-0.0479,-0.0592,-0.0667,-0.0692,-0.0713,-0.0792,-0.073,-0.0718,-0.0722,-0.0724,-0.0692,-0.0691,-0.069,-0.0688,0,-0.0026,-0.0025,-0.0044,-0.0042,-0.0069,-0.0105,-0.0167,-0.0183,-0.0267,-0.0317,-0.0289,-0.0309,-0.0309,-0.0375,-0.0413,-0.0487,-0.0701,-0.0657,-0.0672,-0.0747,-0.0695,-0.0689,-0.0698,-0.0669,-0.0672,-0.0674,-0.0675,0,-0.0034,-0.0032,-0.0042,-0.0048,-0.0062,-0.0071,-0.011,-0.0145,-0.0184,-0.0232,-0.0193,-0.0219,-0.0263,-0.0273,-0.0308,-0.034,-0.0381,-0.0439,-0.0466,-0.0488,-0.0414,-0.0315,-0.0146,0,0,0,0,0,-0.0047,-0.0047,-0.0053,-0.005,-0.0057,-0.0057,-0.0102,-0.0147,-0.0186,-0.0145,-0.0175,-0.0159,-0.0158,-0.0174,-0.0172,-0.023,-0.0403,-0.0228,-0.0488,-0.0565,-0.0587,-0.0523,0,0,0,0,0,0,-0.006,-0.0064,-0.0057,-0.0047,-0.0035,-0.0042,-0.0059,-0.0084,-0.0079,-0.0105,-0.0111,-0.0125,-0.0145,-0.0143,-0.0155,-0.0165,-0.0323,-0.0247,-0.0246,-0.0553,-0.0572,-0.059,-0.0532,0,0,0,0,0]},{"header":{"parameterUnit":"m.s-1","parameterCategory":2,"la1":30.2991,"la2":30.254,"lo1":-89.0895,"lo2":-89.0444,"dy":0.0017,"dx":0.0017,"nx":28,"ny":28,"refTime":"2023-08-20T09:00:00:Z","depth":"4","parameterNumber":3,"parameterNumberName":"V-component_of_CURRENTS"},"data":[0,0,0,0,0,0,0,0,0,0,0,0,0,0,0,0,0,0,0,0,0,0,0,0,0,0,0,0,0,0,0,0,0,0,0,0,0,0,0,0,0,0,0,0,0,0,0,0,0,0,0,0,0,0,0,0,0,0,-0.0636,-0.0636,0,-0.0672,-0.0673,-0.0674,-0.0722,-0.0723,-0.0723,-0.0724,-0.0744,-0.0744,-0.0744,0,0,0,0,0,0,0,0,0,0,0,0,0,-0.0594,-0.0595,-0.0636,-0.0636,-0.0637,-0.0672,-0.0673,-0.0674,-0.0722,-0.0723,-0.0723,-0.0724,-0.0744,-0.0744,-0.0744,0,0,0,0,0,0,0,0,0,0,0,0,0,-0.0622,-0.0595,-0.0636,-0.0663,-0.0666,-0.0672,-0.0673,-0.0674,-0.0722,-0.0723,-0.0723,-0.0724,-0.0744,-0.0744,-0.0744,-0.0726,0,0,-0.0744,-0.0744,0,0,0,0,0,0,0,0,-0.062,-0.0623,-0.0659,-0.0661,-0.0664,-0.0692,-0.0665,-0.069,-0.0721,-0.0703,-0.0724,-0.0725,-0.0723,-0.0725,-0.0733,-0.0727,-0.0728,-0.0744,-0.0744,-0.0744,-0.0744,0,0,0,0,0,0,0,-0.0618,-0.0622,-0.0653,-0.0659,-0.0662,-0.0668,-0.0674,-0.0671,-0.0709,-0.0705,-0.0708,-0.0708,-0.0725,-0.0733,-0.0734,-0.0728,-0.0744,-0.0744,-0.0744,-0.0744,-0.0818,-0.0819,0,0,0,0,0,0,-0.0609,-0.062,-0.0652,-0.0654,-0.0641,-0.0668,-0.0674,-0.0684,-0.0709,-0.0714,-0.0707,-0.071,-0.0732,-0.0734,-0.0734,-0.0801,-0.0744,-0.0744,-0.0744,-0.0816,-0.0818,-0.082,0,0,0,0,0,0,-0.0608,-0.0612,-0.065,-0.0635,-0.064,-0.0668,-0.0678,-0.0684,-0.0712,-0.0711,-0.0716,-0.0731,-0.0733,-0.0734,-0.0765,-0.0799,-0.0744,-0.0744,-0.0813,-0.0816,-0.0819,-0.0879,0,0,0,0,0,0,-0.0607,-0.0611,-0.0626,-0.0635,-0.0641,-0.0669,-0.0677,-0.0684,-0.0709,-0.0713,-0.0733,-0.0735,-0.0734,-0.0765,-0.0765,-0.0798,-0.0744,-0.0811,-0.0815,-0.0818,-0.0874,-0.0884,-0.0891,0,0,0,0,0,-0.0605,-0.0615,-0.0626,-0.063,-0.0657,-0.0669,-0.0674,-0.0697,-0.0709,-0.0726,-0.075,-0.0735,-0.0789,-0.0766,-0.0766,-0.08,-0.0809,-0.0814,-0.0818,-0.0871,-0.0882,-0.0891,0,0,0,0,0,0,-0.0604,-0.0621,-0.0634,-0.0649,-0.0666,-0.0677,-0.0696,-0.0706,-0.0737,-0.0748,-0.0751,-0.0755,-0.0795,-0.079,-0.0765,-0.0835,-0.08,-0.0804,-0.084,-0.085,-0.0859,-0.0839,-0.0744,0,0,0,0,0,-0.0609,-0.0621,-0.0639,-0.0651,-0.0666,-0.0685,-0.0696,-0.071,-0.073,-0.0746,-0.077,-0.0792,-0.0809,-0.0824,-0.0837,-0.0867,-0.0829,-0.0893,-0.0901,-0.0908,-0.0894,-0.0867,-0.087,-0.0835,-0.0835,-0.0835,0,0,-0.0616,-0.062,-0.0632,-0.0651,-0.0671,-0.0697,-0.0696,-0.0719,-0.0749,-0.074,-0.0806,-0.0817,-0.0823,-0.0866,-0.0884,-0.0869,-0.0904,-0.0914,-0.092,-0.0901,-0.0872,-0.0875,-0.0877,-0.0838,-0.0837,-0.0837,0,0,-0.0622,-0.064,-0.0658,-0.0673,-0.0696,-0.0711,-0.0722,-0.0757,-0.0789,-0.0838,-0.0844,-0.087,-0.0917,-0.0921,-0.0927,-0.0984,-0.0945,-0.1009,-0.1037,-0.1012,-0.1014,-0.1015,-0.0982,-0.098,-0.1018,-0.1018,-0.1018,0,-0.0631,-0.0651,-0.0665,-0.0683,-0.0701,-0.0722,-0.0751,-0.0782,-0.0826,-0.0843,-0.0873,-0.0924,-0.0937,-0.0953,-0.0994,-0.0999,-0.098,-0.0996,-0.102,-0.102,-0.1019,-0.0986,-0.0982,-0.1021,-0.1021,-0.102,-0.102,0,-0.0652,-0.0673,-0.0685,-0.072,-0.0744,-0.0766,-0.0807,-0.0845,-0.089,-0.0911,-0.0959,-0.0984,-0.1007,-0.1031,-0.1038,-0.1052,-0.1037,-0.1027,-0.0985,-0.1026,-0.0989,-0.0984,-0.1026,-0.1025,-0.1024,-0.1023,0,0,-0.0656,-0.0695,-0.0701,-0.0721,-0.0764,-0.0782,-0.0837,-0.0877,-0.0902,-0.0964,-0.099,-0.1046,-0.1053,-0.106,-0.1071,-0.1065,-0.1065,-0.1063,-0.106,-0.1015,-0.101,-0.096,-0.0949,-0.1065,-0.1065,-0.1064,-0.0987,0,-0.0673,-0.0704,-0.0727,-0.0772,-0.0796,-0.083,-0.0867,-0.0902,-0.0953,-0.0988,-0.1005,-0.1042,-0.1068,-0.109,-0.1089,-0.1068,-0.1054,-0.1086,-0.099,-0.0986,-0.0924,-0.0942,-0.1062,-0.0983,-0.0982,-0.0981,-0.0981,0,-0.0687,-0.0701,-0.0743,-0.0781,-0.0798,-0.0837,-0.089,-0.0929,-0.0964,-0.0998,-0.1029,-0.1047,-0.1061,-0.1077,-0.1047,-0.1073,-0.1049,-0.1027,-0.1023,-0.0944,-0.0926,-0.0933,-0.0971,-0.0971,-0.0972,-0.0973,-0.0973,0,-0.0665,-0.0715,-0.0745,-0.0761,-0.0808,-0.0844,-0.0886,-0.0931,-0.095,-0.1008,-0.1016,-0.104,-0.105,-0.103,-0.102,-0.1038,-0.0963,-0.0971,-0.089,-0.0885,-0.0924,-0.0924,-0.0925,-0.0925,-0.0925,-0.0925,-0.0925,0,-0.0657,-0.0686,-0.0742,-0.0756,-0.0785,-0.0839,-0.0887,-0.092,-0.0955,-0.0949,-0.1022,-0.1002,-0.1043,-0.1016,-0.1,-0.0928,-0.0944,-0.0881,-0.0859,-0.0956,-0.096,-0.0921,-0.0921,-0.0922,-0.0923,-0.0923,-0.0924,0,-0.0627,-0.0662,-0.0693,-0.0754,-0.0772,-0.0802,-0.0874,-0.0896,-0.0941,-0.0934,-0.0947,-0.097,-0.0938,-0.0949,-0.0905,-0.0889,-0.083,-0.0794,-0.0889,-0.0875,-0.0773,-0.0779,-0.0693,-0.069,-0.0688,-0.0686,-0.0685,0,-0.0611,-0.0623,-0.0679,-0.0695,-0.0733,-0.079,-0.0812,-0.0874,-0.0888,-0.0884,-0.0853,-0.0848,-0.0856,-0.0757,-0.0777,-0.0736,-0.0731,-0.0715,-0.0758,-0.0761,-0.0748,-0.0757,-0.0764,-0.0682,-0.0681,-0.0681,-0.068,0,-0.0575,-0.0603,-0.063,-0.0649,-0.0687,-0.0725,-0.0773,-0.0759,-0.0798,-0.0828,-0.0759,-0.0743,-0.0698,-0.0691,-0.068,-0.0644,-0.0741,-0.0693,-0.0698,-0.0738,-0.0746,-0.0738,-0.0748,-0.0673,-0.0674,-0.0674,-0.0675,0,-0.0551,-0.0554,-0.0582,-0.0601,-0.064,-0.0655,-0.0691,-0.0698,-0.0701,-0.0698,-0.0654,-0.0645,-0.0662,-0.0635,-0.0599,-0.0594,-0.059,-0.0601,-0.061,-0.0618,-0.0634,-0.0637,-0.0498,0,0,0,0,0,-0.0515,-0.0513,-0.0531,-0.0551,-0.0595,-0.062,-0.0649,-0.0682,-0.0692,-0.0627,-0.0647,-0.0598,-0.0563,-0.0554,-0.0532,-0.0559,-0.0595,-0.0532,-0.0614,-0.0633,-0.0641,-0.067,0,0,0,0,0,0,-0.0485,-0.0499,-0.0507,-0.0508,-0.0527,-0.0564,-0.0589,-0.06,-0.0575,-0.0583,-0.0565,-0.0581,-0.0554,-0.057,-0.0525,-0.0525,-0.057,-0.0532,-0.0532,-0.0628,-0.0635,-0.0642,-0.0675,0,0,0,0,0]}]]